RH
58 69 72 71 78 82 97 88 74 58 39 9 5 7 7 7 11 11 10 10 10 13 21 34 47 58 72 77 76 78 77 69 71 68 61 56 59 74 91 100 100 100 100 99 98 95 99 100 100 100 100 100 100 100
54 67 73 74 79 85 100 87 77 56 29 8 6 7 8 8 13 11 11 11 10 12 17 30 46 57 65 71 79 81 74 75 78 82 82 87 90 95 100 100 100 100 100 100 95 96 99 100 100 100 100 100 100 100
53 72 76 76 80 89 100 88 76 52 22 8 7 7 9 10 16 12 11 12 10 11 13 20 41 54 64 71 76 81 85 79 82 86 96 98 100 100 100 100 100 100 100 100 100 100 100 99 91 89 97 100 100 100
61 76 78 80 84 92 100 86 76 56 34 9 9 8 10 12 18 15 11 12 11 10 14 21 37 48 65 74 78 78 80 83 81 88 97 100 100 100 100 100 100 100 100 100 100 98 96 90 82 80 86 90 86 89
72 74 83 84 88 95 100 87 79 69 48 8 10 8 11 13 19 19 13 14 13 12 16 26 39 51 67 76 77 76 73 76 76 79 89 98 100 100 100 100 100 100 100 100 95 84 80 82 89 86 86 90 87 82
80 79 86 91 90 95 99 91 84 68 37 8 8 10 12 15 20 23 14 14 14 13 13 25 36 46 59 66 72 76 72 68 74 76 82 88 98 96 100 100 99 100 100 100 89 77 80 81 92 100 100 100 100 97
82 83 91 94 95 98 98 93 84 60 15 17 11 11 15 18 23 26 17 16 15 15 14 22 32 45 56 65 70 79 77 74 76 77 82 87 91 98 100 100 94 84 84 89 91 89 82 68 62 62 62 60 59 60
88 91 91 97 97 99 97 92 83 58 19 21 15 12 19 21 28 30 18 16 17 16 16 16 27 39 47 56 69 71 77 78 81 82 83 84 86 94 97 94 89 84 80 75 73 74 76 79 79 77 72 67 62 58
95 100 94 96 97 98 97 91 78 54 43 29 15 19 25 27 33 32 22 16 20 20 19 16 17 27 36 48 58 58 48 43 52 73 82 86 82 82 86 91 87 86 84 81 80 80 80 76 72 67 65 64 66 67
100 97 97 95 98 99 95 93 84 60 54 26 21 30 30 28 34 36 24 13 17 22 22 19 17 21 32 40 51 51 46 42 37 35 42 64 77 80 80 78 79 80 82 81 77 76 79 78 75 75 76 76 75 73
98 98 100 97 100 100 95 94 90 68 56 25 31 33 33 30 36 35 30 13 13 18 22 24 20 16 20 27 34 42 43 39 34 31 34 34 37 45 59 73 75 73 72 75 76 77 77 78 77 77 77 78 79 80
98 99 99 98 100 100 97 93 92 78 47 35 36 35 35 30 33 36 30 14 11 14 24 28 24 19 16 18 25 29 31 33 28 26 33 62 65 66 62 61 61 66 70 72 73 72 71 70 71 72 73 74 74 72
99 99 99 100 100 100 99 95 92 82 46 28 28 37 32 29 43 45 33 13 10 11 20 34 34 30 23 20 19 22 24 24 23 25 51 66 85 92 90 86 85 85 85 86 84 80 79 78 77 75 73 78 82 79
99 98 100 100 100 100 98 97 92 78 32 31 41 40 30 36 45 48 26 14 11 11 13 22 39 40 34 29 23 20 21 23 24 34 71 79 87 91 95 97 96 94 96 94 94 92 90 89 84 79 82 86 92 95
99 99 100 100 100 100 99 98 87 62 31 44 53 43 42 42 49 44 28 15 11 11 12 14 27 48 51 42 39 29 26 28 33 61 77 81 82 81 93 100 100 100 99 97 98 99 98 98 95 86 80 70 52 40
99 100 100 100 100 97 94 93 79 52 52 49 47 39 42 47 44 34 25 18 11 9 10 13 16 22 48 58 52 59 52 54 62 72 77 77 81 84 86 91 100 100 99 90 78 64 54 54 52 39 33 29 24 22
99 100 100 100 99 98 97 96 95 91 66 56 46 45 52 48 46 40 35 19 11 9 10 13 18 22 28 57 68 58 64 69 78 80 81 89 93 88 88 89 86 85 89 92 88 80 55 46 34 33 35 31 29 31
100 100 100 100 98 98 97 100 99 93 78 56 38 50 49 49 51 47 31 22 11 8 8 13 18 26 45 34 59 79 66 73 87 95 96 97 100 100 100 98 99 94 80 78 79 78 63 44 41 34 34 35 38 39
100 100 100 100 96 94 92 88 96 91 85 59 46 50 45 47 46 41 34 21 9 7 8 12 21 24 26 31 59 99 100 89 74 73 77 81 84 85 89 94 96 94 92 87 79 77 73 50 44 33 34 42 44 27
100 100 99 99 96 93 90 94 98 96 84 49 48 48 45 40 35 30 22 12 7 7 8 10 16 22 28 36 56 87 98 100 100 100 96 81 70 66 66 69 81 88 92 93 92 88 81 51 46 35 44 50 41 26
100 100 98 96 98 98 98 100 100 98 70 44 52 49 43 33 24 20 10 7 6 6 5 7 9 15 31 42 54 75 84 73 52 59 79 96 100 100 96 78 81 87 93 100 100 100 70 49 47 39 49 53 47 40
100 100 97 95 97 95 98 100 100 87 55 47 55 52 43 27 15 11 9 6 5 5 5 5 6 12 28 45 50 48 55 76 60 44 36 32 72 98 100 100 97 98 100 100 100 89 64 56 44 42 55 61 60 58
100 98 97 100 99 99 100 100 95 70 56 53 51 44 33 24 18 8 5 5 5 5 5 6 7 10 26 53 72 71 64 56 52 51 46 30 23 50 98 100 100 100 100 100 100 91 71 56 48 54 70 77 80 80
98 96 99 100 99 100 100 88 82 70 61 58 47 35 26 14 6 5 5 6 5 5 6 8 12 18 30 57 70 75 85 75 65 52 38 28 25 23 54 99 100 100 100 100 100 100 90 68 60 64 78 92 100 100
100 100 100 100 100 100 91 88 75 72 55 45 34 21 12 6 5 6 7 6 7 7 9 15 24 32 47 77 99 100 100 100 85 59 43 37 32 26 30 89 100 100 100 100 100 100 100 100 99 97 99 100 100 100
100 100 100 100 93 94 78 73 59 49 38 24 14 9 7 6 6 7 8 7 9 11 22 33 46 62 79 99 100 100 100 100 95 84 67 52 43 36 33 69 100 100 100 100 100 100 100 100 100 100 100 100 100 100
97 99 87 93 97 88 66 51 31 17 11 8 7 7 8 8 8 9 9 11 16 29 40 45 56 80 90 93 95 95 98 98 93 83 66 54 45 41 50 92 100 100 100 100 100 100 100 100 100 100 100 100 100 100
69 75 90 86 69 50 24 10 8 7 7 8 9 10 10 11 13 14 17 22 49 67 68 73 91 99 98 94 99 98 96 84 69 58 51 54 59 76 99 100 100 100 100 100 100 100 100 100 100 100 100 100 100 100
58 52 36 22 13 8 8 9 9 9 9 10 10 13 22 23 20 24 40 75 97 98 92 93 100 100 100 100 100 100 100 100 100 100 100 100 100 100 100 100 100 100 100 100 100 100 100 100 100 100 100 100 100 100
13 9 8 8 8 9 10 10 10 11 12 12 15 25 32 29 39 60 95 100 100 98 95 97 98 97 98 100 100 100 100 100 100 100 100 100 100 100 100 100 100 100 100 100 100 100 100 100 100 100 100 100 100 100
10 11 10 10 10 11 10 10 10 11 14 20 27 31 34 38 66 100 100 100 100 100 100 100 95 88 77 73 85 96 100 100 100 100 100 100 100 100 100 100 100 100 100 100 100 100 100 100 100 100 100 99 96 94
11 11 10 10 11 10 10 12 18 26 38 48 52 49 55 88 100 100 100 100 100 100 100 98 94 89 86 79 72 91 100 100 100 100 100 100 100 100 100 100 100 100 100 100 100 100 100 100 100 100 98 98 98 95
10 10 10 11 12 15 25 37 47 46 58 67 74 91 100 100 100 100 100 100 100 100 99 96 91 90 93 100 100 100 100 100 100 100 100 100 100 100 100 100 100 100 100 100 100 100 100 100 100 100 99 96 93 88
Wind_Speed
50 54 59 65 68 61 57 57 59 63 63 63 67 71 74 74 69 67 65 63 59 55 50 39 29 27 29 30 29 26 23 23 23 22 20 17 12 11 12 13 12 13 13 7 7 8 7 11 7 5 6 9 12 14
49 53 57 64 66 59 55 56 58 60 62 63 66 70 73 72 67 64 63 60 57 54 51 37 25 25 29 32 32 26 21 20 19 18 18 16 15 13 12 12 10 9 8 5 3 4 4 7 8 5 6 7 9 13
48 52 56 64 63 56 54 54 57 59 60 61 64 68 72 69 65 62 61 58 55 52 49 34 22 24 30 33 32 28 22 17 17 17 17 17 16 15 14 13 12 10 7 5 3 1 5 7 9 8 8 9 11 13
48 52 55 64 63 55 53 54 55 57 59 60 64 67 71 67 63 61 58 55 53 50 45 32 23 24 31 34 33 30 23 16 14 16 16 17 17 16 16 15 13 11 9 8 7 6 6 7 7 8 9 10 11 12
49 53 56 64 62 54 52 52 54 56 58 59 62 66 69 65 61 59 55 51 48 48 43 32 27 28 32 33 33 31 25 18 14 15 16 16 16 16 15 14 14 13 11 7 3 1 4 4 4 4 5 6 8 10
50 54 57 63 61 54 52 51 52 55 57 58 63 67 69 64 59 56 52 47 46 43 41 30 26 28 31 31 33 33 27 22 18 17 16 16 16 16 15 17 18 19 17 17 15 12 10 7 4 4 3 3 3 6
52 54 57 64 59 53 52 50 51 53 55 58 61 66 67 62 57 55 51 46 44 41 37 29 23 25 28 30 30 31 31 28 24 20 19 18 16 16 15 15 16 17 19 20 20 19 18 17 16 15 16 16 16 16
52 55 58 65 57 52 52 49 49 52 53 58 60 65 66 61 55 54 50 44 41 38 35 31 21 20 22 24 25 27 29 29 26 23 21 18 16 16 13 13 14 15 15 15 15 15 14 14 14 14 14 14 14 13
53 56 59 63 55 51 50 47 48 50 53 56 60 64 65 58 52 50 49 42 38 35 33 31 23 16 16 18 19 21 24 25 25 25 23 21 18 15 12 10 10 10 10 10 10 10 10 10 10 9 9 8 8 7
55 57 61 60 52 50 49 45 46 49 52 55 60 65 65 60 52 48 46 42 36 34 31 28 25 17 15 14 14 16 18 21 24 24 21 20 19 18 14 11 8 9 8 7 6 5 4 3 3 2 1 1 2 2
58 61 63 57 50 49 47 46 46 48 53 56 60 64 65 58 50 47 45 42 38 33 32 28 24 22 15 13 12 13 16 18 20 23 22 18 16 15 14 13 11 8 7 6 5 5 5 6 6 7 8 8 9 10
60 64 61 53 48 47 46 46 46 49 52 56 60 63 65 58 50 46 45 42 39 33 31 29 26 21 19 15 14 14 15 18 20 21 22 20 18 16 14 13 12 12 11 11 10 10 11 12 13 14 15 15 16 17
62 65 58 49 46 45 44 46 47 50 54 58 61 64 65 58 49 45 45 42 39 35 30 28 27 24 20 18 18 17 18 19 20 21 22 23 18 16 15 14 14 14 14 13 14 14 14 15 16 17 17 16 17 17
63 63 53 46 45 43 43 46 50 52 56 58 61 63 62 55 48 44 44 43 40 36 32 29 27 27 25 22 22 21 20 20 20 20 21 20 17 17 16 16 15 14 15 14 14 14 13 13 14 13 14 15 16 17
65 58 49 44 43 41 42 46 49 54 57 58 61 62 57 51 47 46 44 43 41 38 36 33 28 27 27 26 23 23 23 22 21 20 20 20 20 19 19 17 16 16 15 14 14 14 14 14 14 14 11 12 14 14
62 52 46 42 41 42 44 45 50 56 57 58 58 59 54 49 48 46 44 43 41 40 39 37 33 30 26 27 24 23 23 22 22 22 22 22 22 22 22 21 20 19 19 18 18 17 15 14 14 13 12 15 16 16
55 46 44 42 43 43 45 47 51 56 59 58 58 55 51 48 47 45 45 43 41 40 40 39 37 33 31 28 27 26 24 23 24 24 24 24 23 24 25 25 24 24 23 23 23 22 20 18 15 15 15 16 17 20
49 45 43 43 45 45 47 51 55 59 60 60 58 54 51 50 48 48 44 44 42 40 40 39 38 33 33 34 30 28 27 27 27 26 26 25 24 24 25 26 26 27 27 26 26 25 23 20 20 19 18 19 21 23
46 43 44 44 46 49 53 54 57 61 63 61 57 54 53 52 50 44 48 43 42 42 39 37 39 36 35 33 31 29 30 30 30 31 30 28 28 27 28 28 27 27 28 28 28 26 25 23 21 20 19 21 22 21
44 44 45 46 49 53 56 58 60 64 63 61 56 54 53 51 49 47 41 46 46 42 37 37 37 36 34 34 35 33 31 30 30 31 32 33 33 32 32 31 30 29 29 28 27 27 25 24 23 21 21 22 23 21
45 47 50 50 52 57 59 61 64 63 62 61 57 53 53 52 48 44 48 51 44 40 37 37 37 36 34 35 37 36 35 32 31 31 31 31 31 31 31 31 32 32 30 28 27 26 26 26 25 23 24 25 24 24
49 52 53 55 58 60 60 62 63 61 62 61 57 57 55 51 48 52 54 43 38 41 42 44 44 41 38 38 38 38 38 38 36 34 33 31 31 31 30 30 31 30 28 28 27 26 26 27 26 25 26 27 27 27
52 55 57 59 62 62 63 65 61 62 64 61 58 57 53 55 59 48 40 36 40 45 48 49 49 46 43 41 40 39 39 39 38 36 36 34 31 30 30 29 29 28 28 29 28 27 26 27 27 27 28 29 30 30
56 59 61 62 63 65 65 61 62 64 63 61 60 59 63 53 42 36 35 41 47 54 55 52 47 44 42 40 42 35 35 35 35 35 34 34 33 31 30 29 29 28 28 28 29 29 28 28 29 31 32 33 34 34
61 62 66 66 66 64 61 62 64 63 64 63 64 64 53 50 41 42 42 50 54 55 53 48 44 39 35 36 33 29 30 34 34 32 32 33 34 33 31 29 29 29 29 29 29 29 29 29 31 32 34 35 36 37
63 68 67 66 63 62 67 64 66 68 67 64 58 53 57 47 40 49 55 58 55 52 47 42 37 33 30 29 28 28 29 31 31 31 32 32 33 33 32 30 29 30 30 30 30 30 30 30 30 31 33 34 35 37
69 67 65 62 63 64 69 68 64 59 57 59 53 43 40 46 51 55 56 51 47 43 39 37 35 31 28 27 27 29 30 30 31 31 31 32 32 31 30 28 28 29 30 31 32 32 32 31 31 32 33 35 36 37
65 61 60 64 69 66 62 58 55 53 49 44 44 49 56 59 57 53 46 40 36 34 31 28 27 27 28 28 28 28 28 29 30 30 31 30 29 28 27 27 28 28 29 30 31 32 32 32 32 33 34 36 37 38
63 62 59 59 61 50 41 53 58 50 49 55 60 57 53 53 48 40 35 33 31 28 25 24 25 25 25 26 26 26 26 25 25 25 25 25 25 26 28 29 30 31 32 32 31 31 31 32 33 34 35 37 38 40
51 41 39 44 49 58 63 62 58 58 60 59 53 50 50 44 36 32 29 28 28 27 26 25 25 24 24 24 25 25 24 24 23 24 25 26 26 27 28 29 29 29 29 29 30 31 31 32 34 35 37 39 41 43
63 59 56 57 59 60 60 58 56 54 52 49 46 42 38 36 32 29 30 31 29 27 24 23 23 24 24 26 28 28 28 27 27 27 27 27 27 26 25 26 26 27 28 29 29 31 32 34 36 37 40 42 44 46
60 59 58 57 55 55 56 53 50 45 41 39 38 38 35 31 30 28 28 30 30 29 30 30 30 30 30 30 31 31 29 28 27 27 27 27 27 26 26 26 27 27 28 30 32 33 35 37 38 40 42 44 46 48
56 56 55 55 53 50 46 43 41 40 38 36 33 32 31 32 32 34 36 36 36 35 34 35 35 34 34 33 32 31 30 29 29 29 29 28 29 29 29 30 31 32 33 34 35 37 38 39 41 43 44 46 48 51
Wind_Direction
328 331 339 341 341 339 334 337 341 343 343 345 346 347 350 352 351 350 351 354 357 357 358 360 359 5 8 7 9 13 13 16 21 28 31 34 33 23 24 24 26 33 48 76 111 136 133 135 131 146 143 164 175 185
325 330 337 340 339 336 333 336 340 341 343 346 347 347 350 351 350 350 351 354 357 359 358 358 1 3 4 3 1 359 3 8 12 16 23 25 24 21 17 10 13 10 8 26 110 146 163 171 183 168 162 174 177 186
324 329 335 339 337 334 333 337 339 340 343 345 345 347 349 350 349 350 351 354 358 0 2 2 9 6 3 1 358 355 353 350 356 0 7 8 8 7 4 1 354 351 350 343 319 191 193 203 210 202 191 197 204 205
326 329 332 337 335 332 332 336 337 339 341 343 344 347 347 349 349 349 350 353 357 1 8 14 19 10 7 3 0 359 359 354 349 354 360 359 357 359 354 350 347 342 328 308 280 259 226 221 218 217 220 223 218 215
326 328 329 334 333 331 331 334 336 338 340 342 343 345 347 349 348 348 349 352 357 1 7 14 17 14 13 11 10 10 12 10 2 358 1 6 8 9 17 27 28 21 17 10 353 267 208 217 218 207 196 206 215 218
324 326 329 331 331 330 329 332 336 339 340 341 342 343 345 348 347 348 348 349 356 0 5 7 10 14 16 18 19 20 20 20 17 17 21 25 28 42 42 45 48 50 54 61 69 75 83 91 92 98 116 140 178 210
322 324 327 331 329 326 325 330 335 338 340 341 342 342 345 347 347 346 346 351 355 359 3 4 6 13 17 22 25 27 28 30 30 32 35 34 38 41 44 49 55 59 64 69 75 80 85 90 95 96 96 95 94 95
320 322 326 329 326 322 325 329 334 337 339 340 340 342 345 346 346 344 346 348 353 355 -0 5 2 7 13 20 27 31 30 30 29 30 30 32 33 35 40 52 63 63 65 71 77 81 85 88 90 90 89 87 85 85
320 323 325 327 322 320 323 328 334 337 339 338 338 341 345 346 344 343 344 345 350 352 354 358 1 359 5 15 22 25 24 25 25 26 26 26 27 31 36 44 51 55 57 62 71 77 80 83 86 90 90 86 80 76
319 321 323 324 317 317 321 328 333 336 338 337 337 340 344 345 344 342 343 345 347 350 350 350 354 347 349 356 6 11 13 10 13 15 16 16 17 20 21 24 28 23 26 30 31 34 44 69 101 118 118 37 341 324
315 320 322 319 314 316 320 325 332 336 337 335 337 339 342 343 342 341 342 343 345 346 348 347 343 346 335 335 337 347 351 353 354 356 359 360 1 1 1 3 2 349 340 335 324 309 294 286 283 284 284 285 285 286
314 317 319 313 312 315 318 325 332 337 335 336 336 339 341 340 342 343 341 341 341 344 341 344 343 334 334 324 318 321 329 333 337 340 342 342 339 336 333 331 328 324 322 319 312 301 293 288 285 284 283 285 286 286
312 314 312 307 309 313 320 325 332 335 333 333 335 338 341 341 342 341 338 339 339 339 337 335 337 336 321 316 313 310 313 319 324 328 332 335 339 340 338 332 324 318 312 307 300 296 294 290 288 287 286 285 283 285
309 311 305 303 309 314 323 328 334 335 332 334 335 338 339 340 339 338 336 336 336 334 334 332 328 331 329 318 304 303 309 311 314 320 326 328 329 330 333 331 323 317 312 309 304 300 297 294 290 288 290 291 288 290
306 305 299 302 309 316 324 332 335 333 333 334 335 337 336 337 337 334 334 334 334 332 330 329 328 322 322 321 316 303 302 303 306 311 318 317 315 318 323 327 327 325 323 320 315 306 300 295 293 294 296 293 293 297
303 296 296 301 308 316 323 331 331 330 333 333 334 333 332 333 332 332 332 332 331 329 326 325 325 320 314 313 314 308 304 301 299 301 307 310 311 308 307 310 315 317 319 316 312 309 301 293 288 289 297 299 302 301
295 290 295 301 308 316 325 328 328 330 333 331 331 329 329 330 329 328 328 329 328 326 323 320 319 315 311 306 304 303 300 301 298 298 301 304 305 304 303 302 301 302 306 310 311 309 306 300 285 286 294 297 296 298
286 290 296 301 307 317 321 324 325 328 330 329 327 327 327 328 326 325 325 326 324 322 319 318 313 310 302 301 303 301 297 295 295 295 295 296 297 299 300 300 299 297 295 296 300 302 298 293 287 278 282 289 296 302
285 291 296 302 311 316 321 323 322 324 327 326 324 324 327 326 324 323 321 322 321 319 316 312 306 304 303 302 298 294 293 292 290 290 291 292 293 294 295 296 297 296 294 291 289 293 293 289 290 274 274 287 296 302
286 291 297 303 314 319 320 319 321 321 323 323 321 324 324 324 321 319 320 321 319 316 310 304 304 303 300 296 293 292 293 294 297 296 292 289 288 290 292 291 294 295 293 290 288 288 288 288 285 266 274 287 293 296
289 294 297 303 311 314 314 317 319 319 318 318 319 322 321 321 318 316 318 318 317 311 308 305 302 298 295 290 286 285 287 290 293 295 297 297 293 290 289 289 292 292 290 289 286 284 285 286 277 263 274 285 289 293
292 295 301 306 307 309 311 316 315 313 312 316 318 318 318 317 317 315 318 315 309 310 311 308 302 296 292 288 286 285 284 286 286 290 295 297 297 293 290 289 292 289 286 286 283 283 285 282 271 265 276 283 288 291
293 297 301 301 303 307 310 312 310 307 310 315 316 316 316 314 315 319 312 309 310 311 310 307 303 296 288 286 286 285 285 286 287 288 290 293 295 297 294 289 290 290 288 285 281 280 281 279 270 271 279 284 288 291
294 296 297 298 302 305 309 307 304 306 312 312 313 313 313 314 315 321 314 303 306 310 312 309 303 296 289 286 283 287 288 287 285 284 285 286 291 293 293 293 291 290 289 288 287 283 279 277 274 273 278 282 287 289
292 293 296 299 304 306 303 301 304 308 308 309 310 311 308 312 305 318 310 307 308 309 308 305 301 295 291 287 289 286 283 283 284 285 285 284 287 290 291 289 291 291 289 288 288 288 287 285 283 282 282 284 287 288
288 292 298 303 302 299 299 303 306 306 307 307 306 305 305 304 302 311 312 312 309 308 307 305 299 292 285 281 280 279 279 281 282 283 283 285 287 288 287 287 287 290 289 286 283 282 282 283 284 285 285 287 288 290
293 297 300 299 296 296 299 302 303 304 303 304 306 302 301 303 305 309 310 308 307 308 307 304 299 292 286 285 284 283 283 283 284 284 285 285 287 286 284 284 287 290 289 287 285 285 285 285 287 288 290 291 293 294
295 296 296 292 293 295 299 302 303 304 302 300 299 304 304 306 307 308 307 306 306 307 309 310 308 305 300 296 295 293 291 289 287 287 287 287 286 283 281 282 286 290 293 293 292 290 288 288 290 291 293 294 296 297
290 289 289 291 292 295 294 304 308 301 294 296 301 303 300 302 306 306 304 301 300 301 305 307 305 306 306 302 299 297 296 294 293 293 292 292 291 288 285 285 287 290 292 293 292 290 291 292 294 296 297 299 300 302
290 292 294 295 292 292 296 299 299 295 295 297 298 295 298 301 300 299 297 294 295 299 301 301 303 306 308 308 306 302 297 295 296 297 297 297 295 292 291 290 290 290 290 291 291 292 293 295 297 299 300 301 302 304
294 295 294 293 294 294 295 296 296 297 298 297 298 298 298 297 293 291 288 289 293 297 297 300 303 304 306 307 303 299 296 295 295 294 294 296 297 297 296 295 295 295 294 294 296 297 298 299 301 301 302 304 305 306
291 292 292 292 293 293 294 294 296 296 296 297 298 298 298 289 281 281 282 286 288 290 292 296 298 300 299 300 299 298 299 298 299 299 299 297 296 295 295 295 295 296 297 298 298 299 300 301 302 304 305 306 307 308
289 290 290 291 292 292 292 292 293 295 295 294 292 291 289 288 285 284 284 287 289 292 294 294 295 294 293 292 293 296 296 295 293 292 293 294 295 296 295 295 295 296 296 297 299 300 301 302 304 306 307 308 309 311